FLOCK 4P-3

Last updated on Sat Dec 28 2019 00:02:03 GMT+0000 (Coordinated Universal Time)

1 44812U 19081J 19361.16865554 .00001096 00000-0 54807-4 0 9992 2 44812 97.5207 58.1045 0013819 129.5425 230.7033 15.19494624 4551
UTC large
Height (km)
Speed (km/s)
/
Latitude / Longitude
Inclination (degrees)
Orbital Period (minutes)
Azimuth
Elevation
Range (km)
Doppler Factor

Next 0 passes for location: London (51.5072 / 0.1276)

Sorry there are no passes over London.
FLOCK 4P-3